,

(GMT )
Banff

Weather History for CWZG - July, 2013

Change the Weather History Date:

Thursday, July 11, 2013

  Actual Average Record
Temperature  
Mean Temperature 58 °F -  
Max Temperature 70 °F - - ()
Min Temperature 46 °F - - ()
Degree Days  
Heating Degree Days 7    
Growing Degree Days 8 (Base 50)    
Moisture  
Dew Point 30 °F    
Average Humidity 40    
Maximum Humidity 87    
Minimum Humidity 12    
Precipitation  
Precipitation 0.00 in - - ()
Sea Level Pressure  
Sea Level Pressure 29.65 in    
Wind  
Wind Speed 5 mph ()    
Max Wind Speed 16 mph    
Max Gust Speed 32 mph    
T = Trace of Precipitation, MM = Missing Value Source: Averaged Metar Reports

Daily Weather History Graph

Daily Weather History Graph

Search for Another Location

Airport or City:

Trip Planner

Search our weather history database for the weather conditions in past years. The results will help you decide how hot, cold, wet, or windy it might be!

Date:

Astronomy

Jul. 11, 2013 Rise Set
Actual Time 5:40 AM MDT 9:54 PM MDT
Civil Twilight 4:55 AM MDT 10:39 PM MDT
Nautical Twilight 3:49 AM MDT 11:44 PM MDT
Astronomical Twilight 2:20 AM MDT 1:15 AM MDT
Moon 9:32 AM MDT (7/11) 11:04 PM MDT (7/11)
Length of Visible Light 17h 44m
Length of Day
16h 14m
Waxing Crescent, 11% of the Moon is Illuminated
Jul 11
Waxing Crescent
Jul 15
First Quarter
Jul 22
Full
Jul 29
Last Quarter
Aug 6
New

Hourly Weather History & Observations

Time (MDT) Temp. Dew Point Humidity Pressure Visibility Wind Dir Wind Speed Gust Speed Precip Events Conditions
12:00 AM 62.1 °F 43.5 °F 51% 29.67 in - SW 8.1 mph - N/A   Unknown
1:00 AM 59.2 °F 43.9 °F 57% 29.66 in - SW 5.8 mph - N/A   Unknown
2:00 AM 57.0 °F 44.1 °F 62% 29.66 in - WSW 3.5 mph - N/A   Unknown
3:00 AM 57.4 °F 44.8 °F 63% 29.65 in - WSW 4.6 mph - N/A   Unknown
4:00 AM 53.2 °F 41.5 °F 65% 29.66 in - North 1.2 mph - N/A   Unknown
5:00 AM 46.2 °F 41.4 °F 83% 29.67 in - NNE 1.2 mph - N/A   Unknown
6:00 AM 46.4 °F 42.8 °F 87% 29.67 in - WSW 1.2 mph - N/A   Unknown
7:00 AM 47.1 °F 43.5 °F 87% 29.66 in - Calm Calm - N/A   Unknown
8:00 AM 51.6 °F 45.0 °F 78% 29.65 in - SW 2.3 mph - N/A   Unknown
9:00 AM 58.1 °F 47.1 °F 67% 29.61 in - SSW 2.3 mph - N/A   Unknown
10:00 AM 67.3 °F 38.3 °F 35% 29.60 in - WSW 9.2 mph 20.7 mph N/A   Unknown
11:00 AM 67.6 °F 36.0 °F 31% 29.60 in - WSW 10.4 mph 24.2 mph N/A   Unknown
12:00 PM 68.9 °F 27.9 °F 22% 29.61 in - WSW 10.4 mph 21.9 mph N/A   Unknown
1:00 PM 67.8 °F 23.0 °F 18% 29.62 in - SW 16.1 mph 32.2 mph N/A   Unknown
2:00 PM 68.9 °F 19.4 °F 15% 29.62 in - SW 12.7 mph 26.5 mph N/A   Unknown
3:00 PM 68.4 °F 16.3 °F 14% 29.63 in - West 9.2 mph 23.0 mph N/A   Unknown
4:00 PM 69.4 °F 15.4 °F 13% 29.65 in - West 9.2 mph 18.4 mph N/A   Unknown
5:00 PM 70.3 °F 15.1 °F 12% 29.65 in - West 9.2 mph 17.3 mph N/A   Unknown
6:00 PM 68.9 °F 13.3 °F 12% 29.66 in - WSW 10.4 mph 23.0 mph N/A   Unknown
7:00 PM 66.2 °F 12.0 °F 12% 29.68 in - WSW 10.4 mph 24.2 mph N/A   Unknown
8:00 PM 65.1 °F 14.7 °F 14% 29.67 in - SW 5.8 mph 18.4 mph N/A   Unknown
9:00 PM 61.9 °F 18.1 °F 18% 29.67 in - West 3.5 mph - N/A   Unknown
10:00 PM 60.3 °F 17.8 °F 19% 29.68 in - WSW 5.8 mph - N/A   Unknown
11:00 PM 57.7 °F 19.2 °F 22% 29.70 in - WSW 3.5 mph - N/A   Unknown